Regional Weather Roundup
Issued by NWS

Current Version | Previous Version | Text Only | Print | Product List | Glossary On
Versions: 1 2 3 4 5 6 7 8 9 10 11 12 13 14 15 16 17 18 19 20 21 22 23 24 25 26 27 28 29 30 31 32 33 34 35 36 37 38 39 40 41 42 43 44 45 46 47 48 49 50
000
ASUS44 KMEG 020710
RWRTN
TENNESSEE HOURLY STATE WEATHER ROUNDUP
NATIONAL WEATHER SERVICE MEMPHIS TN
200 AM CDT THU OCT 02 2014

TNZ002-004-019-021-049-052-054-088>092-020800-
WEST TENNESSEE

CITY           SKY/WX    TMP DP  RH WIND       PRES   REMARKS
MEMPHIS INTL   CLEAR     73  63  70 S7        29.91R
NWS MEMPHIS      N/A     71 N/A N/A MISG        N/A
JACKSON        CLEAR     69  60  73 S3        29.93S
DYERSBURG      CLEAR     72  55  56 S3        29.92S
UNION CITY     CLEAR     64  61  88 SE5       29.91R
PARIS          CLEAR     66  57  72 SE5       29.94S
HUNTINGDON     CLEAR     64  59  84 SE3       29.94S
LEXINGTON      MOCLDY    64  61  88 CALM      29.94
SAVANNAH       CLEAR     66  61  82 SE5       29.96
$$

TNZ008-025-027-028-033-062-065-066-020800-
NORTH MIDDLE TENNESSEE

CITY           SKY/WX    TMP DP  RH WIND       PRES   REMARKS
NASHVILLE      CLEAR     64  58  80 S6        29.98S
PORTLAND       CLEAR     64  55  72 S6        29.98
CLARKSVILLE    CLEAR     65  60  84 CALM      29.95S
LEBANON        CLEAR     60  56  87 CALM      29.98R
SMYRNA         PTCLDY    60  58  93 CALM      30.00R
MURFREESBORO   CLEAR     63  57  80 CALM      29.99R
COOKEVILLE     CLEAR     54  54 100 CALM      30.02R
LIVINGSTON     CLEAR     68  55  62 S3        30.03S
GALLATIN       CLEAR     61  58  90 CALM      30.00R
CROSSVILLE     CLEAR     60  55  83 CALM      30.07R
$$

TNZ061-075-076-078-094-096-097-020800-
SOUTH MIDDLE TENNESSEE

CITY           SKY/WX    TMP DP  RH WIND       PRES   REMARKS
LEWISBURG      CLEAR     58  56  93 CALM      29.99R
FAYETTEVILLE   CLEAR     64  57  77 S7        30.01S
TULLAHOMA      CLEAR     61  57  88 CALM      30.03R
WINCHESTER     CLEAR     64  59  82 CALM      30.02S
MCMINNVILLE    CLEAR     59  59 100 CALM      30.02S
COLUMBIA       CLEAR    N/A N/A N/A CALM      29.98R
SHELBYVILLE    CLEAR     63  61  94 CALM      30.01R
$$

TNZ017-018-042-046-047-020800-
NORTHEAST TENNESSEE

CITY           SKY/WX    TMP DP  RH WIND       PRES   REMARKS
TRI CITIES     CLEAR     53  49  86 CALM      30.08S FOG
ELIZABETHTON   SUNNY     55  52  88 NE3       30.09S
$$

TNZ012-013-036-069-073-074-020800-
CENTRAL EAST TENNESSEE

CITY           SKY/WX    TMP DP  RH WIND       PRES   REMARKS
KNOXVILLE      CLEAR     58  56  93 CALM      30.03S
OAK RIDGE      CLEAR     58  56  93 CALM      30.06S
GATLINBURG     SUNNY     55  54  94 CALM      30.04S
MORRISTOWN     SUNNY     57  54  88 CALM      30.07S
$$

TNZ083-085-099-020800-
SOUTHEAST TENNESSEE

CITY           SKY/WX    TMP DP  RH WIND       PRES   REMARKS
CHATTANOOGA    CLEAR     63  60  90 CALM      30.03S
$$

SKY/WX REPORTED AS FAIR MEANS FEW OR NO CLOUDS BELOW
12 THOUSAND FEET.



USA.gov is the U.S. government's official web portal to all federal, state and local government web resources and services.